Voltar ao catálogo

KUIPER-00386

AtivoComunicaçõesLEO
NORAD 68921·PAYLOAD·🇺🇸 United States

Lançado Apr 30, 2026 de Guiana Space Centre

Loading…

Próximas Passagens (próximas 24 horas)

TLE

AtualizadoSource: CelesTrak SupGP

Época: Sep 14, 2026, 23:42 UTC

1 68921C 26098C   26257.98796296 -.00003116  00000+0 -40780-3 0  2570
2 68921  51.9001  16.0577 0000453 105.2936 151.1966 14.79941748    12

Acompanhe KUIPER-00386 em tempo real com AllMySat

Download on the App Store